Theta_e
344 344 343 341 341 342 341 340 338 337 336 336 335 335 335 336 336 337 337 338 339 340 340 340 341 342 342 342 342 342 340 335 331 332 334 337 341 342 343 343 344 343 340 340 339 339 340 338 338 337 336 335 334 332 331 330 332 332 332 333 332 332 332 331 330 329 328 330 331 332 332 331 332 332 330 329 330 329 329 330 331 332 333 334 335
347 346 344 342 342 341 340 340 339 338 337 336 336 336 337 338 339 340 341 342 342 342 342 341 342 342 343 343 342 342 341 339 335 332 331 334 339 342 343 343 344 344 342 340 340 340 341 340 338 338 337 336 335 335 333 331 331 332 333 333 333 332 332 332 331 330 329 329 331 331 332 332 332 332 331 330 330 328 328 329 331 333 333 334 335
347 346 345 344 343 341 341 341 340 339 338 338 338 339 339 341 343 343 343 344 343 341 340 340 340 342 343 343 342 341 340 339 337 334 332 332 337 342 344 344 344 344 344 342 341 341 341 341 339 339 338 337 336 336 337 334 331 332 334 334 334 334 333 333 332 331 330 330 331 330 330 331 332 332 331 330 330 329 329 331 333 333 334 334 334
346 346 345 344 343 342 341 341 340 339 340 341 341 342 342 343 345 344 344 344 341 338 337 338 339 341 342 340 339 337 337 336 336 335 332 331 335 340 343 345 345 344 344 344 343 342 342 341 341 340 339 339 338 337 337 337 335 334 334 334 335 335 334 334 333 333 332 331 332 331 329 329 330 331 331 331 331 330 330 333 334 334 334 334 334
346 345 344 344 343 343 342 342 342 342 343 344 344 345 343 343 343 342 341 341 337 334 334 335 337 339 338 336 335 334 333 333 333 333 331 330 333 338 341 343 345 345 345 344 344 343 342 341 341 341 341 340 340 338 337 337 337 336 335 335 335 335 335 335 335 334 333 333 333 332 330 329 328 328 329 331 332 331 332 334 334 335 335 335 335
346 345 345 344 343 343 343 344 344 344 345 344 343 342 341 341 341 339 338 337 334 333 333 334 335 335 334 333 332 331 330 329 329 329 329 329 330 334 339 342 343 344 344 345 345 344 343 343 343 343 342 342 341 340 339 338 337 337 336 336 336 336 335 335 336 336 335 334 334 333 332 331 329 328 329 330 332 332 333 334 334 335 335 335 335
348 348 347 346 345 345 345 344 343 342 343 341 340 339 339 340 339 337 335 334 333 332 332 332 331 331 330 329 328 328 327 327 326 326 326 327 327 329 334 339 340 340 341 342 344 345 344 345 345 344 344 343 342 341 341 340 339 338 337 337 337 337 336 335 335 335 336 336 335 334 334 333 332 330 329 330 331 332 333 334 334 335 335 335 334
348 348 348 347 346 345 344 342 340 339 339 338 338 337 338 338 336 335 334 333 333 332 332 331 330 329 329 329 329 328 328 328 328 328 328 327 326 325 328 332 334 334 336 339 342 344 344 344 345 345 345 344 343 343 342 341 340 340 339 338 337 337 337 336 335 334 335 336 336 335 334 334 334 332 331 330 330 331 332 333 334 334 334 334 333
348 347 346 346 346 344 342 340 339 338 338 338 337 337 336 335 335 334 334 334 334 333 333 332 331 332 332 332 333 332 332 331 332 333 334 333 329 325 325 326 328 329 331 336 340 340 341 341 342 342 344 345 344 344 343 343 342 342 341 340 339 338 337 336 336 335 334 334 335 336 335 335 335 334 332 332 331 331 331 332 333 333 333 332 331
349 347 345 343 342 341 340 339 338 338 337 336 335 334 333 332 332 333 333 334 334 334 334 334 334 335 335 336 336 336 336 336 336 337 337 336 334 330 326 325 327 330 332 335 337 339 341 341 341 341 342 344 344 344 344 343 343 343 342 341 340 340 339 338 337 335 334 333 333 334 335 335 335 335 334 332 332 332 330 330 331 331 331 330 329
346 343 340 337 336 337 338 337 335 334 333 333 333 333 332 331 331 333 334 334 335 336 336 336 336 336 336 336 337 337 337 337 338 338 337 337 338 336 334 331 330 331 333 334 336 338 340 340 339 339 339 340 341 342 344 344 343 343 343 342 341 340 339 339 338 337 335 333 332 332 333 335 335 335 335 333 332 332 330 329 329 330 330 329 329
340 336 335 333 334 335 334 332 330 329 330 333 334 334 333 333 334 334 335 336 337 338 339 339 338 337 337 336 337 336 335 336 338 338 338 339 339 338 339 338 336 335 334 334 334 335 335 336 335 334 335 337 338 339 342 343 342 342 342 343 343 342 341 340 339 339 338 335 333 331 331 332 334 335 335 335 333 332 331 330 330 329 329 329 329
335 335 334 333 334 335 332 331 330 331 333 336 336 334 333 334 334 333 333 334 336 338 338 338 337 336 335 334 335 334 333 335 337 338 338 339 339 339 339 340 340 340 339 339 338 338 338 338 339 339 339 340 340 340 341 342 341 341 342 342 343 343 342 341 341 340 339 338 336 334 331 330 330 332 333 334 334 333 332 332 331 330 330 329 329
335 334 332 331 335 336 333 331 333 334 335 335 333 332 332 333 333 331 330 331 332 333 334 334 334 333 333 333 333 332 333 336 337 335 335 337 338 338 339 340 340 340 340 339 339 339 339 340 341 341 342 342 341 341 342 342 342 342 343 343 343 343 343 343 342 341 340 339 339 337 335 331 329 329 330 331 332 333 333 333 333 332 331 331 330
335 333 331 330 333 334 332 330 329 330 332 332 331 331 331 331 330 327 327 327 328 331 332 333 333 332 332 332 333 334 335 337 335 334 335 336 336 336 336 337 337 337 337 337 336 336 336 336 337 337 337 337 337 338 339 341 341 342 343 343 343 343 343 343 343 342 341 340 340 340 339 337 333 330 329 329 330 331 332 333 333 334 333 333 332
333 333 332 331 332 333 331 328 328 329 330 331 330 329 327 326 325 324 323 323 325 329 331 332 333 333 333 333 335 335 335 335 333 333 335 335 333 334 333 333 334 334 334 335 335 335 334 334 334 334 334 335 335 336 337 337 338 339 341 342 343 343 343 343 343 343 343 342 341 340 340 339 338 335 333 331 329 329 330 331 332 333 334 334 333
334 334 333 333 333 332 328 325 327 330 329 329 328 326 323 322 322 322 322 323 325 328 331 332 333 334 334 334 335 335 335 334 332 333 333 332 332 332 332 332 332 332 333 333 333 333 334 334 335 335 335 336 336 337 336 336 336 336 337 340 342 342 342 342 342 343 343 344 343 342 341 340 339 338 337 335 333 331 330 329 330 331 332 333 333
335 333 333 332 330 327 324 324 327 328 327 327 324 322 321 321 322 323 324 325 325 327 329 330 332 333 333 334 334 334 333 333 333 332 331 330 330 330 329 330 330 330 330 330 330 330 331 332 334 335 336 336 336 336 336 335 335 335 335 336 338 340 341 342 342 343 343 343 343 343 343 342 341 340 339 338 336 335 333 331 330 329 329 330 331
333 333 332 331 329 329 328 328 328 327 325 324 321 321 322 323 324 325 325 326 327 327 328 329 330 331 332 332 333 333 333 333 332 331 330 329 328 327 327 327 327 327 327 327 328 328 329 330 331 333 334 334 334 334 335 335 335 336 336 335 335 336 338 340 342 343 343 343 343 343 343 343 343 342 341 340 339 338 336 335 333 332 330 330 330
332 332 330 330 332 334 333 330 329 329 327 324 322 322 324 325 325 325 325 326 327 327 328 329 330 330 331 331 332 332 332 332 331 330 329 327 327 326 325 325 324 324 323 324 324 325 326 326 327 328 329 330 331 331 331 333 334 335 335 336 336 336 337 338 341 342 343 344 343 344 343 342 343 343 342 342 341 341 339 336 336 335 334 333 331
332 330 328 331 335 336 335 332 332 332 331 326 324 324 325 325 325 324 325 326 327 327 329 330 330 330 330 331 330 330 331 331 330 328 326 326 325 325 324 323 323 322 321 321 320 320 320 321 321 322 323 325 327 329 329 330 330 331 332 334 336 338 338 338 339 340 341 343 344 344 344 343 343 343 343 342 342 342 341 339 338 336 336 336 335
332 328 326 332 336 335 335 335 334 334 331 327 324 325 326 325 324 324 324 325 327 328 329 330 330 330 330 329 328 328 329 330 329 326 324 325 325 323 322 322 322 321 320 319 318 317 317 317 318 319 319 321 323 325 327 329 329 330 330 331 333 337 339 339 338 338 338 339 341 343 344 344 344 344 344 343 342 342 342 342 341 340 338 338 338
332 327 326 332 334 334 335 335 334 332 328 325 324 325 325 324 323 323 324 325 327 328 329 330 329 329 329 328 326 325 325 327 328 327 325 324 323 322 322 321 321 321 320 319 318 316 316 316 316 317 318 319 320 321 323 325 327 329 330 331 332 334 336 338 339 338 337 337 338 339 341 343 344 344 343 343 344 343 342 341 342 342 342 340 339
327 325 328 331 332 332 333 332 330 328 326 323 323 323 323 323 322 323 324 324 326 329 330 330 329 329 329 327 325 325 324 325 326 327 326 324 322 322 321 320 319 319 319 318 318 317 317 316 315 316 316 317 318 318 319 320 322 324 326 329 332 333 334 335 337 338 337 336 336 336 336 339 341 343 343 343 344 343 342 342 342 342 343 343 342
322 323 325 327 328 329 329 328 327 325 324 322 321 322 321 321 322 324 325 325 326 327 328 329 329 329 329 327 325 324 325 326 326 327 326 323 321 321 320 319 317 317 318 318 318 319 319 318 316 315 315 316 316 317 318 318 319 319 321 323 326 330 332 333 333 334 335 335 335 334 334 335 336 338 341 342 343 343 343 343 343 342 342 344 345
321 320 320 322 325 327 326 325 325 323 322 321 321 321 321 322 323 324 325 326 325 325 326 327 328 329 329 327 324 323 324 325 326 326 324 322 321 321 320 318 317 317 318 318 319 319 320 320 319 317 316 315 315 316 317 317 318 318 319 319 320 323 327 330 332 332 332 333 333 333 333 334 333 334 335 337 340 341 342 343 343 343 343 344 345
318 318 320 322 323 325 324 323 323 322 322 322 321 321 321 322 322 322 323 324 325 325 325 325 326 328 328 327 324 322 323 324 324 324 322 321 321 321 320 319 318 318 318 318 319 319 320 320 319 318 317 316 316 316 316 316 317 318 318 319 319 319 321 324 329 331 332 332 331 332 333 334 334 333 333 333 334 337 340 342 344 344 344 344 344
317 317 319 321 322 323 323 322 323 322 322 322 321 322 322 322 323 322 321 323 323 324 324 325 325 326 327 326 324 323 323 323 323 323 322 322 322 321 321 319 318 318 318 318 319 319 319 320 319 319 318 317 316 315 315 315 316 317 318 318 319 319 319 320 323 327 331 332 332 331 333 334 334 333 332 332 332 333 335 339 342 344 344 344 344
316 316 318 321 322 322 323 322 322 321 321 321 321 321 322 323 323 323 322 322 323 324 324 325 325 325 325 325 325 325 324 324 324 323 323 322 322 322 321 320 319 318 318 318 318 319 319 319 319 319 319 318 317 316 315 315 315 317 318 319 319 319 319 319 320 322 326 330 332 332 332 333 333 333 332 332 332 331 332 336 339 342 344 345 345
318 319 320 321 321 322 322 321 320 321 323 323 323 322 322 322 322 322 322 323 324 325 326 327 327 326 325 325 325 325 325 325 326 325 324 323 323 323 322 321 320 319 318 318 319 319 320 320 320 320 319 319 318 317 315 314 315 317 318 318 319 319 319 319 319 320 321 324 328 331 332 332 333 333 332 331 331 331 330 333 336 340 342 344 345
320 321 320 320 322 324 325 323 322 324 326 326 326 325 325 325 325 325 324 324 325 326 326 328 328 328 328 327 327 326 327 327 327 328 327 326 324 323 323 322 321 320 319 319 319 319 320 320 320 320 320 319 318 317 316 315 316 318 318 318 318 318 319 319 320 320 320 321 324 327 331 332 332 332 332 332 331 330 330 332 334 337 339 341 343
323 323 320 319 323 327 328 327 327 328 328 328 328 328 328 328 328 327 327 326 326 327 327 327 327 328 328 329 328 328 328 328 328 328 329 328 327 325 324 323 321 320 320 319 319 320 320 320 320 321 320 319 319 317 316 315 316 318 318 318 317 317 318 319 320 321 320 321 322 324 327 330 331 332 332 332 331 331 331 331 333 336 337 338 340
325 325 322 322 325 328 328 328 328 328 328 328 328 328 328 328 329 328 328 328 327 327 327 327 327 326 327 328 329 329 328 328 328 328 328 328 329 328 326 325 324 322 321 319 319 320 321 321 321 321 321 320 319 318 316 315 317 318 318 318 318 317 317 318 319 321 321 321 322 323 325 327 330 331 332 333 332 331 331 331 332 334 336 336 338
326 326 327 327 328 329 328 328 328 328 329 329 329 328 328 329 329 329 329 328 328 328 328 327 327 327 327 327 327 328 327 326 325 325 326 328 329 329 328 327 326 325 324 323 322 321 322 322 321 322 322 321 319 318 317 316 317 318 319 318 318 318 317 317 318 319 321 322 323 324 325 327 329 331 333 333 333 332 332 332 333 333 336 337 337
328 327 328 328 328 328 328 327 328 328 329 329 329 329 328 328 329 329 329 329 328 328 328 328 328 328 328 327 327 326 325 324 324 324 325 327 328 328 327 327 326 326 326 326 325 324 324 324 324 323 324 323 321 318 317 317 318 319 319 319 319 318 317 316 317 318 319 321 323 325 326 327 328 330 332 333 333 332 333 334 334 335 337 340 340
328 328 328 328 328 329 328 327 328 329 329 330 329 329 328 328 328 328 328 328 327 327 328 328 329 328 328 327 326 326 325 325 324 324 325 326 326 326 326 326 326 325 325 326 326 326 326 325 325 325 325 325 322 320 319 318 318 319 319 319 319 317 316 316 316 317 318 320 322 324 327 328 328 329 331 332 332 332 333 334 336 337 339 341 341
328 328 327 327 328 328 327 327 328 329 329 329 329 328 328 328 328 327 326 326 326 327 327 328 328 328 328 327 327 327 326 324 322 321 322 323 324 325 325 326 326 325 326 326 326 326 326 326 326 325 325 325 322 321 320 319 319 320 320 319 319 317 316 316 316 317 317 318 320 323 326 328 329 330 330 331 331 331 332 334 336 338 340 342 342
328 328 327 327 327 327 326 327 327 327 328 327 327 327 327 327 326 325 325 325 326 326 326 326 326 326 327 327 327 327 325 322 320 320 321 322 322 323 323 325 326 326 327 326 326 326 326 326 325 325 325 324 322 320 319 319 320 320 320 320 319 317 316 316 316 316 317 318 319 321 323 327 330 331 331 331 331 331 331 333 335 338 340 341 343
328 327 327 327 327 326 326 326 326 326 326 326 325 325 325 324 324 325 325 325 325 325 324 324 324 324 326 326 327 326 324 322 322 323 323 322 322 323 323 324 326 326 326 326 326 326 326 325 325 324 323 321 320 320 320 320 320 320 320 320 319 318 317 317 316 316 316 317 318 319 321 325 328 331 332 332 331 331 331 332 334 336 339 341 342
327 325 326 327 327 326 326 326 326 326 325 325 325 324 324 324 325 325 325 324 324 323 323 322 323 323 324 325 327 326 324 323 324 324 324 323 322 322 323 324 324 325 325 326 325 324 323 323 322 321 320 320 320 320 320 320 320 320 320 320 320 319 318 317 316 316 316 317 318 319 321 323 327 331 333 333 332 331 332 332 332 334 337 339 341
325 323 325 327 328 327 327 328 327 325 324 324 324 324 324 325 325 325 325 324 324 323 323 323 323 322 322 323 324 326 326 325 325 325 325 323 322 322 322 322 322 322 323 323 323 322 321 320 320 319 319 320 320 320 320 320 320 320 320 320 320 318 317 316 316 317 317 318 318 319 320 322 325 329 332 334 333 332 332 332 332 333 336 338 339
323 322 325 328 328 328 329 329 327 325 324 325 325 325 325 326 326 326 326 326 325 325 325 325 325 324 323 323 323 324 325 325 325 325 325 324 322 322 322 322 321 321 321 321 321 320 320 320 319 319 320 320 320 320 320 320 321 321 320 319 318 317 316 317 317 318 318 319 319 320 320 322 324 326 330 333 334 333 332 332 331 332 334 336 337
322 323 327 329 329 328 328 327 326 326 326 326 326 326 326 327 327 327 327 327 327 327 326 326 326 326 326 326 325 324 323 323 324 324 325 325 324 323 322 322 321 321 321 321 321 320 320 319 319 320 321 320 320 319 320 321 321 320 318 317 316 316 317 317 317 318 319 319 320 320 320 321 322 325 328 333 334 335 334 332 331 331 332 333 334
322 326 328 329 330 328 327 326 326 326 327 327 328 328 327 326 327 327 328 327 327 327 327 327 327 327 327 327 326 325 324 323 322 322 324 324 325 323 322 322 322 321 321 321 320 319 318 319 320 321 321 320 320 320 320 321 320 318 316 316 316 316 317 317 317 318 319 320 320 320 321 321 322 323 327 332 334 335 335 334 332 331 331 331 331
325 327 328 329 329 327 326 325 326 327 328 329 331 331 329 327 327 328 328 327 327 327 327 327 327 327 327 327 327 326 326 324 322 322 323 324 324 324 322 322 322 322 321 321 319 318 319 320 321 321 320 320 320 320 320 319 318 316 316 316 316 316 317 317 318 318 320 320 320 321 321 321 322 323 325 330 334 335 335 335 333 331 330 329 328
328 328 328 329 328 327 326 326 328 329 329 329 331 332 332 329 328 328 328 328 328 327 327 327 326 326 327 327 327 326 326 324 322 321 323 324 324 324 322 322 322 322 322 321 319 318 320 321 321 321 320 320 320 319 319 318 316 316 316 315 315 316 317 317 318 319 320 320 320 321 321 321 322 323 324 328 333 334 335 335 334 332 330 329 328
330 327 327 328 327 327 327 328 329 330 329 329 329 331 332 331 329 328 328 328 328 328 327 326 324 324 325 327 327 326 325 323 321 321 323 324 324 324 323 322 322 322 321 320 319 319 321 321 321 320 320 319 318 318 318 318 316 315 315 315 315 316 317 318 319 319 320 320 320 321 322 322 322 323 324 328 332 334 335 335 334 333 332 332 332
332 328 327 327 328 328 328 329 331 330 329 329 329 330 331 330 329 329 329 328 328 327 327 325 322 322 323 326 327 326 324 321 320 321 323 323 323 323 322 322 321 321 321 320 319 320 321 321 320 320 320 319 318 319 319 318 316 315 315 315 315 316 317 318 319 320 320 320 321 321 322 322 322 322 324 327 332 334 335 335 335 334 333 334 335
333 329 327 327 328 327 328 330 332 331 330 330 330 330 330 330 330 329 328 328 327 327 326 325 323 322 323 325 326 324 321 320 320 320 321 322 322 322 322 321 321 321 321 320 319 320 320 320 320 320 320 320 319 320 320 318 317 315 315 315 315 316 317 318 319 320 320 321 321 322 322 322 323 322 324 326 331 334 335 336 336 335 334 335 336
332 329 328 328 327 328 329 331 333 333 332 331 330 330 329 329 329 327 327 326 326 325 325 324 322 322 323 324 323 321 320 320 320 320 320 320 321 321 322 322 321 321 321 320 320 319 319 320 320 320 320 320 320 320 320 318 316 315 315 315 315 316 317 319 319 320 321 321 322 322 323 323 323 323 324 325 329 333 335 336 336 334 334 335 337
332 330 329 329 329 329 331 333 333 333 332 331 330 329 329 329 328 326 326 326 325 323 322 321 321 322 323 323 322 320 321 321 320 320 320 320 321 321 321 322 321 321 321 320 320 319 319 320 320 320 320 320 320 320 320 318 316 316 315 315 315 316 318 319 320 320 321 322 322 323 323 323 323 323 323 325 328 332 335 336 336 335 334 336 337
Wind_Speed
7 7 7 7 6 6 6 7 7 7 8 8 9 10 11 12 13 13 14 15 15 16 16 15 14 13 12 12 13 13 13 12 11 10 10 10 9 8 10 11 13 15 17 18 17 16 15 14 14 13 13 13 13 12 12 14 16 16 15 15 15 15 15 15 15 15 14 14 14 14 14 14 14 13 13 12 12 12 11 11 10 10 10 10 9
7 7 7 7 6 7 7 8 9 9 10 11 12 13 14 15 16 16 15 15 16 16 16 16 14 13 12 11 12 13 14 14 13 12 11 11 9 8 9 11 12 15 17 19 19 18 16 15 15 14 14 14 13 13 12 13 15 17 16 15 15 15 15 15 16 16 15 15 15 15 15 15 15 14 14 13 13 12 12 12 11 11 11 11 10
8 8 8 8 8 8 8 9 10 11 13 14 15 16 16 17 16 15 14 14 15 16 15 15 12 10 10 11 11 13 14 15 16 14 12 11 10 9 9 10 11 13 16 18 21 20 17 16 16 16 16 15 14 14 13 13 13 16 17 16 16 15 15 16 16 16 17 17 16 16 16 17 16 16 15 15 14 13 13 13 12 12 11 11 11
10 10 10 9 9 9 10 12 12 13 15 16 16 17 17 16 14 14 14 14 15 15 14 13 11 9 10 11 11 13 13 14 15 14 13 11 10 10 10 10 10 11 13 16 20 21 18 16 16 17 17 17 16 15 15 14 14 14 16 17 17 16 16 16 17 17 17 17 17 18 18 18 17 17 16 16 15 15 14 14 13 13 12 12 12
11 10 10 10 11 11 12 13 14 15 15 17 15 13 13 13 11 12 13 14 15 14 13 12 10 9 9 10 10 11 12 12 12 13 12 11 10 11 11 11 11 11 12 14 17 20 19 17 16 16 17 17 18 17 16 16 15 15 16 17 17 18 18 17 18 18 18 18 18 18 18 18 18 18 18 17 17 16 16 15 15 14 14 14 13
11 11 10 11 11 12 13 14 15 15 14 14 13 11 11 11 11 11 12 12 13 13 13 12 10 9 9 10 11 11 13 13 13 13 13 13 13 13 13 13 13 12 12 13 15 17 18 17 16 16 17 18 18 19 19 18 18 17 17 17 18 18 19 19 19 19 19 19 19 19 19 19 18 18 18 18 18 18 17 17 17 16 16 15 15
12 11 10 11 12 13 14 13 13 13 12 11 12 11 11 10 10 11 11 11 12 12 13 12 11 10 9 10 11 12 13 14 15 14 14 15 16 16 16 15 15 14 14 14 14 15 16 17 16 17 19 20 19 20 20 20 19 19 19 18 18 18 19 20 20 21 21 21 20 20 20 20 19 19 19 19 19 19 19 19 18 18 17 17 16
12 12 11 11 13 12 12 11 10 11 10 9 10 10 10 10 9 10 10 10 11 11 11 12 11 11 10 11 11 11 12 13 13 13 13 14 16 17 18 18 17 16 15 15 15 16 17 17 16 16 19 20 21 21 21 21 21 21 21 20 19 19 20 20 21 21 22 22 22 22 22 22 21 21 21 21 21 21 20 20 19 19 19 18 18
11 11 11 11 10 9 9 10 9 9 8 8 9 9 10 10 10 11 11 11 10 10 10 10 10 10 10 10 10 10 9 9 9 9 10 10 11 13 16 17 18 16 16 15 15 16 17 18 17 16 18 20 21 22 23 23 21 21 22 22 22 21 21 21 21 21 22 23 24 24 23 23 23 22 22 22 22 21 21 21 20 20 20 20 19
11 9 10 10 8 8 9 9 8 8 8 9 10 10 11 11 11 11 11 11 10 10 10 10 10 9 9 8 8 8 8 7 7 7 8 7 7 7 9 12 14 15 14 13 14 15 14 15 16 16 17 19 20 21 23 23 22 22 23 24 24 23 23 23 22 22 22 23 24 25 25 25 24 24 23 23 23 23 22 22 22 21 21 21 21
8 7 8 8 8 8 8 8 8 9 9 10 10 10 10 10 10 10 10 10 10 10 10 11 11 10 8 7 7 7 7 6 6 6 6 6 6 5 4 6 9 11 12 12 13 14 13 13 15 15 16 17 19 21 21 22 22 23 23 24 25 25 25 25 25 23 22 23 24 25 26 26 26 25 25 24 24 24 23 23 23 23 22 22 22
5 5 7 8 7 8 8 9 10 11 10 9 8 8 8 8 8 9 9 9 9 10 11 12 12 11 9 7 6 6 5 4 5 5 5 5 5 5 4 3 4 6 7 8 10 12 13 14 15 16 16 17 19 20 20 21 22 22 23 24 25 26 27 27 27 26 25 24 23 24 25 26 27 27 26 25 25 25 25 24 24 24 23 23 23
5 5 7 8 8 8 8 10 11 9 8 8 7 8 8 7 7 8 8 8 7 8 10 11 11 11 10 8 6 5 5 3 3 3 4 4 5 4 4 3 2 2 2 3 5 8 9 10 12 14 15 16 17 19 19 20 22 22 23 24 24 26 27 27 29 29 27 26 25 24 25 26 27 28 27 27 27 26 26 26 25 25 24 24 24
7 8 10 10 9 10 10 11 10 8 7 7 7 8 7 7 6 7 8 9 8 7 9 10 10 11 12 11 8 5 4 3 1 5 6 4 5 4 4 4 3 2 2 3 3 5 6 8 9 11 12 14 15 16 16 19 21 21 21 22 25 27 27 27 29 29 28 28 27 26 25 26 27 28 28 29 29 28 27 27 27 26 26 25 25
10 11 12 11 11 11 12 13 11 9 8 7 7 7 7 7 7 7 8 9 9 8 9 9 9 9 10 11 11 8 3 3 1 6 4 3 5 6 6 6 6 6 6 6 6 7 9 10 11 12 13 14 14 14 14 16 18 19 19 21 24 26 27 28 28 28 29 30 30 29 28 27 27 28 28 29 30 30 29 29 28 28 27 27 26
12 13 13 12 12 13 14 12 9 7 6 6 7 8 9 9 9 9 9 9 9 8 8 8 8 8 8 9 10 9 5 4 9 6 0 3 6 6 7 7 7 8 8 8 9 10 11 12 13 14 15 16 16 15 15 15 15 16 17 20 22 25 27 28 28 29 29 30 31 31 30 30 30 29 29 29 29 30 31 31 30 30 29 29 28
13 14 13 13 13 13 13 9 6 5 6 7 8 9 10 10 10 10 9 9 9 8 7 7 7 7 7 7 6 6 7 11 13 6 2 5 6 6 6 7 7 7 8 9 9 10 11 12 13 14 15 16 17 17 17 17 16 16 15 17 21 23 25 27 29 30 30 30 31 32 32 32 32 32 31 30 29 30 30 31 31 31 31 31 30
13 13 13 13 13 12 10 7 5 5 6 7 8 9 9 9 8 8 7 7 8 8 7 6 7 7 7 7 5 6 8 11 11 9 8 7 6 6 6 6 6 7 8 9 10 11 11 12 13 14 15 16 17 17 18 18 19 18 17 17 19 21 23 25 27 29 30 31 32 33 34 34 34 34 33 32 32 31 30 31 31 31 31 32 31
12 11 12 12 10 7 6 5 5 5 5 5 6 7 6 6 5 5 5 5 6 7 7 6 6 6 6 6 5 5 6 6 8 11 13 10 7 7 7 7 7 7 8 8 10 10 11 12 13 15 16 16 17 18 18 19 19 19 19 19 19 20 21 23 24 26 28 30 31 32 34 35 36 36 35 34 34 33 32 31 31 31 31 32 32
10 11 11 9 7 4 4 3 3 3 3 4 4 4 4 3 3 4 5 5 4 4 5 4 4 4 4 5 5 5 5 4 4 6 10 13 12 9 8 9 8 8 8 8 9 10 11 12 13 14 16 17 19 19 20 20 21 21 20 20 20 20 20 20 21 23 25 28 30 31 32 34 35 36 36 35 35 35 34 33 32 32 32 32 32
11 11 9 8 7 5 5 4 3 4 6 6 4 3 3 3 3 4 5 4 4 3 3 3 4 4 4 4 4 5 4 3 3 3 5 10 13 13 13 13 10 8 9 10 10 11 11 12 12 13 14 16 17 19 20 21 22 23 23 21 21 20 20 19 19 20 22 25 27 29 31 32 34 35 36 36 36 36 36 35 33 33 32 33 33
12 11 8 8 7 6 6 5 5 6 7 6 5 4 4 4 5 5 5 4 4 3 3 3 3 4 4 5 4 4 5 4 4 4 5 7 10 14 15 16 15 13 11 11 11 11 12 12 12 13 13 13 15 17 18 20 21 23 24 23 23 22 22 21 20 20 20 22 24 26 29 31 33 34 35 36 36 37 37 37 36 34 33 33 34
13 11 9 9 8 8 7 7 7 8 8 6 5 5 5 5 6 6 5 5 4 3 3 3 3 4 5 5 6 6 7 6 6 7 8 9 11 13 13 13 16 16 14 14 12 11 12 12 13 13 13 13 13 14 16 17 19 21 23 23 23 24 25 25 25 24 23 23 23 24 26 30 32 32 34 35 35 35 35 36 37 36 35 34 34
14 12 11 10 10 10 9 8 8 8 8 6 5 5 5 6 6 6 6 6 5 4 4 4 4 4 5 6 7 8 8 8 8 9 10 11 13 14 13 13 13 14 15 15 14 13 13 14 14 15 15 15 15 15 16 17 17 19 22 23 24 25 27 29 29 28 27 26 26 25 25 28 30 32 33 34 35 35 35 35 36 36 36 35 35
14 13 12 12 11 11 10 8 7 8 8 7 5 5 5 5 5 6 6 6 6 6 6 6 6 5 6 7 7 8 8 9 9 10 11 13 14 15 14 14 14 14 15 16 17 16 15 15 16 16 17 17 18 19 19 19 19 18 20 22 25 26 28 30 31 32 31 30 29 28 28 28 29 31 32 34 35 36 36 36 36 36 37 37 36
14 13 12 12 12 11 9 8 7 8 8 7 6 6 6 6 6 6 6 6 7 7 7 7 7 7 8 8 8 8 8 9 10 11 12 13 14 15 16 16 16 17 17 17 18 18 18 17 17 18 19 19 20 21 21 21 21 21 21 22 23 25 28 30 32 33 33 33 32 31 30 30 30 31 33 34 35 36 36 37 37 36 37 38 38
13 13 12 12 11 10 8 7 8 8 7 7 7 7 7 7 7 7 7 7 8 8 8 9 9 9 10 10 10 9 9 10 11 12 13 14 14 15 16 17 19 20 20 20 19 19 19 20 19 19 21 22 22 22 22 23 24 25 25 25 25 25 26 29 32 34 34 34 34 34 32 32 32 33 34 34 35 36 37 38 38 38 38 38 39
13 13 12 11 10 9 8 8 8 7 6 7 8 8 8 9 9 8 7 7 8 8 9 10 10 11 11 12 12 12 11 12 12 13 14 15 15 15 16 17 19 22 23 23 23 21 20 21 22 22 22 23 24 24 24 25 26 28 30 30 29 28 26 27 30 34 36 36 36 36 35 34 34 35 36 36 36 36 37 38 39 40 39 39 40
12 12 12 11 9 8 8 8 7 5 5 6 8 9 10 10 11 10 9 8 9 9 9 10 11 12 13 14 15 14 14 14 14 14 15 15 15 16 17 17 18 21 23 25 27 25 22 22 24 25 24 25 26 26 26 28 29 31 33 33 33 32 30 28 29 32 36 38 39 38 38 37 37 37 37 37 37 37 37 37 39 40 41 40 39
11 11 11 10 9 8 7 6 5 4 4 5 6 7 8 9 10 11 11 10 11 10 10 11 11 12 14 14 15 16 15 16 16 16 17 17 17 17 18 18 19 20 22 25 29 29 26 24 25 26 27 28 28 28 28 29 31 33 34 35 35 34 33 31 30 31 34 37 40 41 41 40 39 38 38 38 38 38 38 37 39 40 41 41 41
11 11 11 11 9 6 4 4 4 4 4 5 5 6 6 7 8 9 10 10 12 12 11 12 12 13 14 15 16 16 16 17 18 18 18 18 19 18 19 19 20 21 22 24 29 32 30 28 27 27 28 30 30 29 29 29 31 32 34 35 35 35 35 34 32 31 32 35 38 41 42 42 41 40 39 38 39 39 39 39 39 40 41 42 43
11 11 12 12 9 6 4 4 4 4 5 5 6 7 8 9 9 10 10 10 12 12 12 12 13 15 16 16 17 17 17 19 20 19 19 19 20 20 20 21 21 22 23 24 29 34 33 31 30 29 29 31 31 30 30 30 31 32 33 35 36 36 35 35 35 33 32 34 36 38 42 43 43 42 41 39 39 39 39 40 40 40 41 42 43
11 11 11 11 9 7 6 5 4 5 6 7 8 8 10 11 12 12 12 11 12 13 13 13 13 14 16 17 18 18 19 20 21 21 21 20 21 20 20 21 22 22 24 26 30 35 35 32 32 31 30 31 32 31 31 32 32 33 34 35 36 37 37 37 37 35 33 33 35 36 39 42 44 44 42 41 40 39 39 40 40 41 41 42 43
12 10 9 9 8 8 7 5 5 6 8 9 9 10 11 12 14 14 14 13 14 14 14 14 14 15 16 18 19 20 19 21 22 22 22 22 22 22 21 22 23 23 24 26 30 34 37 35 34 33 32 32 32 31 31 33 34 35 36 37 38 39 40 39 38 37 34 33 34 35 37 41 43 44 44 43 41 40 39 39 40 41 41 41 42
12 10 9 9 9 9 8 7 7 8 10 11 11 12 13 14 15 15 15 15 16 16 15 14 14 15 17 19 20 20 19 20 21 21 22 22 23 24 24 23 24 24 24 26 29 33 36 36 35 35 35 34 34 32 32 34 35 36 37 39 40 42 43 43 41 39 36 33 33 35 35 38 42 44 45 45 43 41 40 39 39 40 40 41 41
13 11 10 10 10 11 10 9 9 10 12 14 15 15 15 15 16 16 16 17 16 16 15 14 15 16 18 19 20 20 19 20 21 21 21 22 24 25 26 25 25 25 24 25 28 31 34 37 37 37 37 36 35 33 33 35 36 36 37 39 41 43 46 46 45 42 39 35 33 33 34 35 39 42 44 45 45 44 42 40 39 39 39 40 41
14 12 12 12 12 12 11 11 11 12 14 16 17 17 16 16 17 17 16 16 16 15 14 14 15 16 18 20 20 20 21 21 21 21 21 22 23 25 26 26 26 26 26 28 30 31 34 37 38 37 37 36 35 33 33 35 38 38 39 40 42 45 48 49 48 45 42 39 35 33 33 34 36 40 42 43 44 44 43 41 39 38 39 40 40
15 14 14 13 13 13 12 12 12 13 15 17 18 18 18 17 16 15 14 14 14 14 14 14 15 16 18 20 21 21 22 21 21 21 21 21 22 24 25 26 26 27 29 29 30 31 33 36 36 37 37 36 35 34 33 34 38 40 41 43 44 46 48 50 51 49 46 43 39 35 33 33 34 37 40 42 42 43 44 43 40 38 38 39 40
18 17 15 14 13 13 13 13 13 14 16 18 19 19 18 16 14 13 13 13 13 14 14 15 16 17 18 19 21 22 22 22 22 22 21 21 22 23 24 25 26 27 28 28 28 30 32 33 34 35 36 35 35 35 34 35 38 40 41 45 49 50 49 51 52 53 50 47 43 38 32 32 34 36 38 40 42 42 43 44 42 39 39 39 40
20 18 16 14 14 14 14 14 15 16 17 18 19 18 16 14 12 12 13 13 14 15 16 17 17 18 18 19 21 22 23 23 23 23 23 22 22 22 23 23 24 25 26 27 28 29 30 32 33 33 34 34 35 35 36 37 39 40 40 43 49 53 52 52 53 54 53 49 46 41 33 30 33 35 36 38 41 42 42 44 44 42 40 40 41
21 18 16 15 16 16 16 16 17 17 17 17 17 15 13 12 11 12 13 14 15 16 17 18 19 19 19 19 20 22 23 24 25 25 24 22 21 22 22 22 23 24 25 26 27 28 29 30 31 32 33 34 35 36 37 37 39 41 41 42 47 52 52 53 55 53 51 49 48 44 36 29 30 34 36 37 39 40 41 43 44 44 42 41 42
22 19 17 17 18 18 18 18 18 17 16 15 13 12 12 12 12 13 15 16 17 18 18 19 20 20 20 19 19 20 22 25 26 27 26 23 21 21 21 22 22 22 23 24 25 26 27 28 30 31 33 35 36 35 36 38 38 40 41 42 46 50 51 52 55 54 51 46 44 43 39 31 28 32 34 36 37 39 40 42 44 44 43 42 42
22 20 18 19 19 18 18 19 18 17 15 13 11 11 12 13 14 16 17 18 19 20 21 21 22 22 21 20 20 20 21 23 25 27 27 25 22 21 21 21 21 21 22 23 24 24 25 27 29 31 33 36 36 34 35 37 37 38 41 43 45 48 49 49 52 56 54 46 41 43 44 37 31 31 32 33 35 37 38 40 42 44 43 42 42
23 21 20 20 20 19 19 20 19 18 16 13 12 13 14 14 16 18 19 20 22 22 23 23 23 24 24 23 22 22 22 23 24 26 27 26 24 22 21 21 21 21 22 22 23 25 26 28 29 31 33 35 35 34 34 34 35 38 42 45 45 46 48 48 50 55 55 48 43 46 47 40 33 32 32 33 33 35 37 38 40 42 43 42 41
24 23 22 21 20 20 20 20 19 17 16 15 15 15 16 16 17 19 21 23 24 25 24 24 25 26 26 26 26 26 25 24 24 24 25 25 24 23 23 23 23 22 22 22 23 25 26 27 29 30 31 33 33 34 32 30 34 40 44 46 46 47 49 50 52 55 53 47 44 46 47 43 36 34 34 34 32 32 34 36 37 39 41 41 41
26 24 23 21 21 21 21 19 18 17 16 16 16 17 18 19 19 20 23 25 26 26 26 26 26 27 27 28 29 29 28 26 25 24 23 23 23 24 24 25 25 24 23 23 23 24 24 26 28 29 31 31 31 32 30 29 33 40 44 46 47 50 52 53 54 55 50 45 43 44 46 45 39 36 36 35 32 30 32 35 36 36 38 39 39
27 25 23 22 22 21 20 19 18 18 17 17 18 19 20 20 21 22 24 25 26 26 27 27 26 25 27 28 30 31 30 27 24 23 23 23 23 24 25 26 26 26 25 24 23 23 24 26 27 29 30 29 28 30 29 29 34 40 43 45 48 52 55 56 56 55 50 45 42 41 45 44 39 39 37 34 32 30 30 33 35 35 36 36 36
27 25 23 23 22 20 19 18 18 19 19 19 20 21 21 22 23 24 25 25 26 27 27 25 23 22 24 28 31 31 28 25 22 21 23 23 23 24 26 26 27 28 26 24 23 24 25 26 27 27 28 28 28 29 29 30 35 41 44 46 49 52 55 55 55 54 51 47 42 40 43 42 38 39 37 33 31 30 28 30 33 34 34 33 34
27 26 24 23 22 20 18 18 18 19 20 21 22 23 23 24 24 24 24 25 27 27 25 23 22 22 23 27 29 27 25 23 21 20 21 22 22 24 25 26 27 28 26 24 24 24 25 26 26 26 27 27 28 28 29 31 35 40 45 47 50 53 54 54 53 54 52 47 42 39 40 40 38 37 36 32 31 29 28 28 30 31 31 31 32
26 25 24 22 21 19 17 17 18 20 22 23 24 24 24 24 24 24 24 25 25 23 22 22 22 22 22 24 24 23 23 22 21 20 21 21 22 23 25 26 27 27 26 25 25 26 26 25 25 25 25 27 28 29 31 33 35 40 45 48 51 53 54 53 52 53 51 47 42 37 37 38 36 34 34 32 31 31 29 27 27 28 29 29 29
25 25 25 24 23 21 19 18 19 21 23 24 24 25 24 23 24 24 24 23 21 21 21 22 21 20 20 21 21 21 22 23 22 21 21 21 22 23 24 25 26 27 26 26 27 28 28 26 25 25 26 28 29 30 31 33 36 41 46 50 53 55 55 54 52 50 48 45 40 35 34 36 35 33 33 30 29 31 29 26 26 27 28 28 28
Wind_Direction
255 257 261 259 256 259 272 282 285 288 280 279 282 286 291 292 295 297 299 299 299 298 295 293 292 293 296 297 297 295 297 301 304 300 294 292 288 271 256 253 249 241 235 233 231 228 225 225 228 230 230 229 226 229 230 228 227 228 229 231 232 230 228 227 226 226 227 229 230 232 233 233 233 234 234 232 232 235 236 233 231 235 240 242 243
264 266 268 264 260 261 271 278 280 285 287 289 290 291 294 295 297 299 299 300 301 299 298 296 290 287 286 290 294 291 290 289 293 296 290 282 278 269 255 253 251 245 240 234 231 228 224 223 225 229 231 232 231 231 233 232 229 228 230 232 235 235 233 230 228 227 227 229 230 232 234 235 236 237 237 235 234 235 233 232 231 234 240 243 245
267 270 271 269 269 270 276 280 283 288 291 292 292 291 292 291 292 297 298 300 304 305 304 302 297 292 284 286 290 289 290 288 288 290 288 278 268 261 250 247 248 245 244 240 234 230 226 226 224 224 229 233 234 234 235 236 233 230 231 232 235 237 237 236 233 231 229 229 230 232 235 237 238 239 239 238 237 234 230 231 232 234 239 243 247
269 272 276 278 278 281 286 286 288 288 289 289 289 291 292 289 289 298 301 301 306 308 308 305 300 293 286 286 289 290 292 289 286 285 281 274 264 255 248 249 249 247 247 246 243 237 229 230 231 226 228 232 234 235 236 238 238 235 234 234 236 238 238 239 238 237 234 232 232 232 234 237 240 241 241 239 238 236 232 233 235 237 241 245 249
267 272 276 282 284 287 290 288 286 283 285 286 286 291 294 293 296 302 300 301 307 309 309 306 297 289 286 288 289 290 291 288 285 281 276 269 262 255 248 248 251 253 253 251 253 249 239 237 240 236 235 236 235 236 237 237 239 239 238 237 237 240 241 241 241 241 240 238 237 235 235 236 238 241 241 240 239 239 238 239 241 243 246 248 251
263 272 276 278 280 283 284 285 287 284 285 289 292 298 300 300 303 301 299 302 309 312 312 310 303 294 290 290 290 290 289 288 285 280 276 268 263 258 250 244 243 246 252 254 256 257 253 248 246 245 245 244 242 241 240 238 239 240 242 241 240 241 243 245 244 244 244 243 242 241 239 237 237 238 239 240 241 241 243 245 247 249 250 249 250
256 261 269 274 274 277 281 285 292 292 293 298 303 306 305 304 304 301 302 306 310 314 314 311 309 303 297 295 293 292 290 289 289 286 282 274 267 260 253 245 241 241 244 248 252 256 261 259 254 250 249 248 247 246 245 243 242 242 242 242 244 244 244 246 247 248 248 247 246 246 245 243 240 239 239 241 242 244 245 248 252 254 255 253 252
261 254 260 271 274 277 284 289 291 296 300 301 302 303 301 302 302 304 307 310 310 308 306 305 305 306 307 305 300 296 293 291 293 294 292 283 273 263 255 248 244 245 242 243 248 251 257 260 259 256 254 253 250 249 249 248 247 247 246 244 244 247 248 248 248 248 249 249 249 248 248 247 246 244 242 242 244 246 247 250 254 256 258 257 256
265 266 270 277 282 283 287 292 292 299 302 297 298 296 297 299 301 306 309 311 309 303 301 302 304 308 313 312 307 303 299 297 301 308 310 305 287 269 259 252 246 244 240 238 245 250 255 257 256 254 256 259 256 254 253 252 251 251 252 249 246 246 248 250 251 251 250 250 250 250 250 248 248 248 247 246 245 246 248 250 253 255 258 259 260
267 277 280 281 289 291 289 293 294 297 295 291 292 293 294 297 301 306 308 310 307 302 302 302 302 306 309 310 308 308 306 303 310 316 317 324 319 287 265 255 249 245 239 236 241 250 260 261 258 256 258 264 263 259 258 258 257 255 255 254 252 249 249 250 250 253 253 251 250 250 250 249 249 249 249 249 248 247 247 249 252 253 256 258 260
265 267 278 287 293 293 290 290 289 286 283 285 289 291 294 298 303 307 309 307 302 298 299 299 299 303 307 307 304 307 306 300 298 303 307 320 331 325 294 260 251 250 248 248 248 252 259 259 259 261 262 268 268 267 267 267 264 260 257 257 255 253 252 251 250 251 253 254 252 250 249 249 250 249 248 250 250 250 250 250 251 253 255 258 259
252 267 285 297 294 284 279 282 284 281 280 286 291 294 296 302 309 312 312 307 299 295 294 296 300 304 309 313 311 309 306 284 266 280 300 316 325 330 329 303 269 261 259 264 265 264 267 266 267 270 270 271 271 272 274 273 270 265 260 259 260 257 254 252 251 250 250 253 255 253 251 249 250 250 249 249 249 251 252 252 253 254 257 259 261
256 275 285 292 280 267 273 289 293 289 289 291 293 297 299 305 315 319 319 316 306 294 293 298 304 308 310 313 318 321 310 268 238 292 305 307 314 323 329 325 319 312 288 281 276 275 277 277 279 279 278 276 274 275 275 274 271 267 266 265 264 260 256 253 252 250 249 251 253 256 255 253 251 251 251 250 249 249 250 252 254 256 258 260 263
265 274 284 287 274 264 278 296 295 289 292 293 295 300 304 311 318 322 321 320 317 306 302 304 309 314 315 317 323 338 322 216 154 343 317 300 309 310 314 310 305 303 293 289 284 281 281 279 278 278 277 277 277 279 278 275 271 269 271 271 267 264 260 256 254 251 250 250 250 252 255 255 254 252 252 252 252 252 251 251 253 255 257 259 262
264 273 282 284 278 274 284 294 287 277 280 288 296 301 308 315 315 317 315 312 313 310 308 307 311 317 319 322 326 341 351 188 319 340 316 318 330 316 312 310 309 307 303 304 299 294 290 285 281 279 278 277 277 277 276 276 274 273 274 272 267 264 262 260 258 255 254 252 251 249 250 253 254 253 252 252 253 253 253 253 253 254 255 257 259
265 275 280 283 282 281 286 291 284 272 273 285 298 304 310 311 307 309 309 307 307 304 304 305 310 319 322 326 326 336 349 323 329 339 319 339 337 325 320 315 314 313 310 309 305 300 296 290 284 279 276 274 274 274 272 271 273 276 277 272 265 261 259 259 259 258 256 254 253 250 248 249 251 252 252 252 251 252 253 254 254 255 255 256 257
267 274 276 279 279 281 283 283 276 280 283 288 294 295 296 296 296 302 305 308 309 306 308 307 309 318 322 326 325 326 332 329 332 334 302 325 330 328 326 319 316 312 307 304 299 297 293 288 282 276 272 271 271 273 273 273 273 274 275 271 265 262 260 258 258 259 259 257 256 255 253 250 250 251 252 252 251 251 252 253 254 255 256 256 257
260 262 268 273 274 276 274 263 257 261 260 264 269 271 276 281 286 295 302 305 307 307 311 311 309 311 313 315 312 311 319 327 330 323 316 326 338 337 333 323 315 308 304 299 294 291 288 284 278 273 271 270 271 272 273 275 274 274 274 270 268 266 264 262 259 258 260 259 257 258 257 255 253 252 252 253 252 251 251 252 253 254 255 256 257
251 256 267 271 269 262 253 246 237 232 237 250 253 255 264 275 286 297 300 296 296 300 303 305 303 304 304 305 306 307 316 324 326 325 324 327 342 348 341 335 331 323 313 304 299 295 290 287 282 277 275 274 274 274 274 275 274 274 274 272 270 269 269 268 264 260 258 258 258 259 258 255 254 253 252 252 252 252 251 251 252 253 254 254 255
251 265 268 259 247 235 245 258 246 248 291 300 271 250 254 270 287 298 299 294 291 294 298 300 298 301 303 305 312 314 318 318 313 322 323 323 331 344 341 336 342 343 332 323 318 312 304 298 292 288 283 280 279 278 276 274 273 273 273 273 271 270 271 272 269 265 261 259 259 261 260 257 254 252 252 252 251 251 251 252 251 252 253 253 254
258 267 255 232 226 233 246 262 274 296 317 316 286 255 259 278 291 295 297 299 303 300 297 297 297 308 311 305 310 311 309 302 289 304 317 318 325 335 338 334 335 345 342 335 334 331 325 319 312 305 297 289 285 283 280 277 275 274 272 271 268 266 268 269 270 268 266 263 261 261 261 259 256 253 251 251 252 252 252 252 252 252 252 253 254
260 264 245 221 225 238 245 253 270 293 310 307 275 258 267 277 286 291 291 294 299 294 284 281 289 306 309 303 304 304 300 290 283 301 314 313 316 327 334 332 328 333 337 334 335 339 341 338 335 328 318 307 296 289 286 282 279 276 274 272 268 264 262 263 266 268 268 267 265 263 261 259 258 257 255 253 252 252 252 252 251 252 252 253 254
260 258 241 224 227 235 239 249 266 288 304 294 262 258 268 274 286 292 289 288 287 282 274 264 271 289 295 298 304 306 304 298 292 299 310 311 311 316 323 323 320 321 324 327 330 338 343 344 346 346 342 336 325 312 301 293 286 281 277 276 272 267 263 262 263 264 263 264 265 265 262 259 259 259 258 255 254 252 252 251 250 250 251 252 254
255 251 244 236 233 233 237 249 266 286 296 281 255 253 262 272 285 290 291 289 286 283 277 270 268 272 277 289 298 301 301 299 295 295 301 308 310 311 313 313 312 312 314 317 319 327 334 338 342 346 346 346 345 339 330 318 306 295 286 280 275 271 267 264 263 262 260 259 260 262 261 259 259 259 257 255 255 254 253 252 250 248 248 249 252
248 250 249 245 239 235 240 250 267 281 282 273 261 259 267 273 279 284 288 289 291 290 283 277 271 263 268 280 289 293 294 293 290 287 293 303 307 307 309 309 309 310 313 314 315 318 323 328 335 341 342 343 345 345 343 337 330 320 307 292 282 275 270 267 265 262 260 258 257 257 257 257 257 258 257 256 257 257 255 254 252 250 248 247 248
244 249 245 239 236 237 241 248 259 264 262 264 266 268 270 270 269 274 275 277 284 288 286 282 274 266 267 275 281 286 288 287 285 285 292 301 306 306 307 307 307 310 313 315 316 318 320 321 327 334 338 339 341 342 341 340 337 334 326 314 299 286 276 270 267 264 261 258 257 255 254 254 254 255 255 255 255 256 256 253 252 251 249 248 247
241 241 234 229 232 235 237 239 245 249 257 270 274 272 272 266 261 262 262 263 267 273 278 278 275 270 268 271 275 282 287 285 283 286 294 303 306 305 305 308 310 312 314 314 315 318 320 320 321 328 334 335 336 337 336 337 337 335 332 327 319 306 290 276 268 265 262 258 255 254 253 252 252 252 252 252 252 253 253 252 251 251 250 249 248
236 234 228 225 227 229 229 234 243 253 272 285 284 280 276 271 267 266 265 264 265 268 272 274 274 271 269 270 271 277 283 284 283 287 294 300 304 303 302 306 311 313 314 315 315 317 321 323 322 324 331 332 331 332 333 334 334 333 332 330 326 319 309 291 274 266 263 259 255 252 251 251 251 251 251 251 251 251 251 250 250 249 249 249 249
233 229 223 218 217 218 224 237 251 268 289 297 294 287 281 281 283 283 283 279 275 276 278 278 277 273 271 271 271 275 279 280 282 286 291 297 299 299 300 302 305 309 312 312 312 313 318 323 323 323 326 329 328 328 330 332 334 334 332 331 328 323 317 307 290 273 264 260 257 253 251 250 250 250 250 250 251 252 251 249 248 247 247 247 247
223 213 204 199 199 204 218 235 247 266 298 313 311 301 294 293 293 293 294 290 285 284 285 286 284 280 278 275 273 276 278 281 284 287 290 294 295 295 296 297 299 302 306 308 307 308 312 318 320 322 324 326 326 326 327 329 333 336 335 334 332 326 320 313 304 288 272 263 259 256 254 251 249 249 249 249 250 251 251 249 247 246 245 244 245
206 194 186 181 180 185 203 221 230 255 300 327 329 325 322 319 314 308 302 294 290 290 290 289 288 286 284 282 279 279 282 286 288 290 292 293 293 292 290 291 294 297 299 302 302 303 308 313 316 318 321 323 324 325 325 327 331 335 336 337 335 330 323 318 312 300 285 272 263 258 256 254 251 248 247 247 248 249 250 249 247 246 245 243 243
194 186 182 180 181 187 202 215 229 259 296 322 327 325 323 322 319 315 311 301 295 296 297 293 290 287 285 284 283 283 285 287 288 291 292 293 293 292 289 287 288 291 294 295 296 297 302 307 311 315 319 320 321 322 322 324 328 331 332 334 336 332 326 321 317 309 295 282 271 262 256 254 253 249 246 245 245 246 247 248 247 246 245 243 242
189 186 183 185 194 210 220 226 244 270 289 304 312 312 309 308 305 303 302 300 298 300 301 298 295 291 288 285 284 285 286 287 288 289 290 291 292 292 290 288 287 288 289 290 292 294 297 302 306 311 315 317 317 319 320 322 325 326 326 328 331 331 328 322 318 314 305 291 280 270 260 254 252 250 246 243 243 244 245 246 246 246 244 243 241
191 190 189 193 206 222 228 238 258 272 281 289 294 295 292 290 290 289 289 292 296 299 298 297 297 296 292 288 286 286 287 287 287 287 287 289 290 290 290 290 290 290 289 289 290 292 294 298 303 307 311 313 313 315 317 319 322 323 322 324 326 328 328 325 319 315 311 300 289 280 268 256 252 249 247 244 242 243 244 245 245 245 244 242 239
201 202 202 207 217 229 235 244 258 270 279 284 285 284 280 280 283 285 285 289 294 296 294 293 296 296 294 291 288 287 286 285 285 285 286 287 288 290 291 291 291 291 291 291 290 290 292 296 299 303 308 310 310 312 313 315 319 319 319 321 323 324 325 325 321 315 312 306 296 287 277 262 253 250 248 246 244 243 243 243 244 244 242 239 237
212 215 215 220 228 236 243 251 261 272 280 281 281 279 277 280 286 289 289 291 292 292 290 291 295 297 296 293 291 288 285 284 285 284 284 286 288 289 289 289 288 289 291 290 289 289 291 293 298 302 304 306 307 309 310 313 316 317 316 317 320 322 323 324 322 316 312 310 301 291 283 270 257 251 249 247 246 244 242 242 243 243 241 238 235
219 222 223 229 235 241 250 258 266 275 279 281 281 279 279 284 290 294 293 292 291 290 290 292 296 298 296 293 291 288 284 283 284 284 284 284 284 284 285 285 285 285 287 288 289 290 289 291 296 301 302 303 304 306 309 313 314 315 315 315 318 321 323 322 321 318 313 311 306 296 286 275 262 253 249 247 246 243 241 240 241 241 239 237 235
223 225 226 233 240 247 256 261 267 274 280 284 282 280 282 286 290 294 295 293 291 290 291 294 296 297 294 292 290 287 283 282 283 286 287 286 285 284 284 283 285 286 288 289 292 293 292 292 296 299 300 302 303 305 309 312 312 313 314 315 316 319 320 321 320 319 315 310 308 302 289 278 268 257 250 246 245 243 240 238 238 239 238 236 235
226 226 227 235 245 253 259 262 269 277 281 281 279 278 280 282 286 294 297 293 288 288 290 294 296 295 294 292 289 285 281 280 283 286 289 291 290 289 287 284 285 287 289 291 294 294 294 295 296 298 300 302 303 304 309 311 309 310 314 315 315 315 317 318 318 317 316 311 308 304 292 279 272 263 253 247 243 242 241 239 237 237 236 235 234
230 228 229 238 250 256 260 265 272 277 277 274 274 275 275 275 284 294 294 290 287 289 292 295 297 294 291 290 287 284 279 278 281 284 287 290 291 290 289 288 286 286 288 291 292 291 292 295 296 298 301 302 303 304 308 310 309 310 314 313 311 312 313 314 314 314 314 311 309 306 296 279 271 266 258 250 244 242 240 239 237 236 235 234 233
234 230 231 242 252 257 263 269 274 274 273 270 269 269 270 275 285 291 293 294 297 300 301 301 299 294 291 290 288 284 280 278 279 281 283 286 287 288 291 292 290 289 288 288 288 289 292 295 297 299 301 300 302 305 308 310 310 309 311 311 309 310 311 311 310 310 311 309 308 307 300 284 273 267 261 254 247 242 240 239 236 235 234 233 234
234 232 235 244 252 259 265 270 271 269 267 267 267 268 273 280 286 290 294 297 301 305 306 305 301 296 292 294 294 289 284 280 279 280 281 280 281 285 290 292 294 294 292 290 290 292 294 295 296 298 299 298 301 305 307 309 310 309 310 312 310 310 310 308 308 309 310 308 305 304 299 290 279 271 263 257 251 245 241 239 236 235 234 233 234
232 233 237 244 251 259 265 266 264 260 260 266 272 277 281 284 287 291 294 296 299 301 305 306 304 299 294 293 295 295 291 286 282 280 279 276 275 280 284 288 293 296 295 293 293 293 294 295 296 297 296 297 301 305 306 308 309 310 314 314 311 309 309 306 305 307 308 306 301 297 295 289 281 273 263 256 253 248 244 240 236 234 234 234 236
232 234 238 244 251 259 262 260 255 254 259 267 273 279 283 286 289 291 291 293 294 295 300 303 302 299 294 290 291 291 291 292 288 283 279 274 271 275 280 284 290 295 296 293 292 294 296 297 297 295 295 297 301 304 305 307 311 314 316 314 312 310 307 304 301 301 303 304 298 293 291 286 278 271 261 252 251 249 246 242 237 234 234 235 236
234 236 239 245 252 257 259 256 255 260 266 271 276 282 285 285 286 287 288 289 290 293 297 299 298 295 291 288 288 285 284 288 290 284 278 273 269 270 275 280 286 291 294 293 292 294 297 297 295 294 296 299 300 302 306 311 315 316 316 315 314 311 307 303 301 300 300 300 293 287 286 283 276 271 260 250 247 248 246 243 238 235 234 235 236
235 238 241 247 252 256 258 258 261 268 275 280 286 288 287 286 285 285 286 287 288 291 294 297 296 293 289 286 285 282 281 287 291 284 275 270 266 267 272 278 283 287 292 295 296 296 297 296 294 295 298 300 300 303 308 313 316 317 317 316 315 312 308 305 304 302 300 296 289 282 280 277 274 270 261 248 245 248 246 242 238 235 234 235 236
236 239 244 248 253 256 259 262 266 272 279 284 287 287 286 285 285 286 287 287 286 288 293 297 297 293 290 286 281 281 284 291 292 284 274 269 266 268 273 278 282 286 291 299 301 299 298 296 295 295 297 299 301 303 307 311 313 316 318 318 317 315 311 307 306 304 300 295 288 279 273 271 269 266 258 245 243 247 245 241 238 234 234 235 235
237 243 247 250 254 257 260 265 270 275 280 284 286 285 284 283 284 286 287 286 286 290 294 297 297 294 291 284 279 283 289 293 292 284 276 272 270 272 275 279 283 287 293 302 303 300 299 297 295 295 297 299 301 302 303 305 309 318 322 319 318 318 313 307 304 301 297 293 287 276 269 267 264 261 253 242 240 246 243 240 238 235 234 234 234
239 245 249 251 254 257 262 269 273 277 281 283 284 283 282 283 284 284 286 287 290 294 296 298 298 295 290 285 284 290 293 291 290 286 279 276 275 275 276 280 285 289 297 304 302 299 300 298 297 298 299 300 301 301 300 300 308 323 326 320 318 318 312 304 300 298 295 290 284 274 267 263 259 257 251 240 237 241 241 238 237 235 233 233 233
245 251 254 254 254 257 263 271 274 278 281 281 281 282 283 283 283 285 290 293 295 297 298 298 297 294 290 288 288 290 289 288 289 287 283 280 278 277 279 282 287 293 301 305 301 301 302 299 298 301 301 301 301 300 300 301 310 327 330 324 321 318 310 303 299 297 294 287 278 269 262 258 255 252 248 241 237 240 241 239 236 232 230 229 230
251 258 260 257 254 254 256 261 268 274 277 278 280 282 283 284 287 293 298 298 298 301 299 296 292 290 289 288 287 285 285 287 289 289 287 282 279 279 281 285 290 297 302 305 305 307 306 303 305 307 306 305 302 300 302 304 313 328 333 330 326 319 310 305 302 297 290 281 274 264 254 251 250 245 240 237 236 238 240 238 234 231 228 226 225